This is the latest recevied weather packets stored in our database for station/object BM1CCR-13. If no packets are shown the sender has not sent any weather packets the latest 10 day(s).
| Time | Temp. | Humidity | Pressure | Rain* | Wind** | Luminosity | Snow |
|---|---|---|---|---|---|---|---|
| 1777784676 | 27.78° C | 71% | 999.1 hPa | 0 mm | - | - | - |
| 1777784376 | 27.78° C | 71% | 999.3 hPa | 0 mm | - | - | - |
| 1777784090 | 27.78° C | 69% | 999.2 hPa | 0 mm | - | - | - |
| 1777784076 | 27.78° C | 69% | 999.4 hPa | 0 mm | - | - | - |
| 1777783776 | 28.89° C | 67% | 999.3 hPa | 0 mm | - | - | - |
| 1777783476 | 28.89° C | 66% | 999.2 hPa | 0 mm | - | - | - |
| 1777783176 | 28.89° C | 66% | 999.2 hPa | 0 mm | - | - | - |
| 1777782876 | 28.89° C | 65% | 999.3 hPa | 0 mm | - | - | - |
| 1777782576 | 28.89° C | 64% | 999.2 hPa | 0 mm | - | - | - |
| 1777782275 | 30° C | 60% | 999.3 hPa | 0 mm | - | - | - |
| 1777781975 | 30.56° C | 59% | 999.3 hPa | 0 mm | - | - | - |
| 1777781687 | 30.56° C | 57% | 999.4 hPa | 0 mm | - | - | - |
| 1777781675 | 30.56° C | 57% | 999.3 hPa | 0 mm | - | - | - |
| 1777781375 | 30.56° C | 59% | 999.3 hPa | 0 mm | - | - | - |
| 1777781087 | 30.56° C | 59% | 999.3 hPa | 0 mm | - | - | - |
| 1777781075 | 30.56° C | 59% | 999.4 hPa | 0 mm | - | - | - |
| 1777780787 | 30.56° C | 60% | 999.2 hPa | 0 mm | - | - | - |
| 1777780775 | 30.56° C | 59% | 999.3 hPa | 0 mm | - | - | - |
| 1777780487 | 30.56° C | 58% | 999.2 hPa | 0 mm | - | - | - |
| 1777780474 | 31.67° C | 58% | 999.2 hPa | 0 mm | - | - | - |
| 1777780188 | 32.78° C | 53% | 999.3 hPa | 0 mm | - | - | - |
| 1777780174 | 32.78° C | 53% | 999.2 hPa | 0 mm | - | - | - |
| 1777779874 | 33.89° C | 50% | 999.1 hPa | 0 mm | - | - | - |
| 1777779587 | 33.89° C | 50% | 999.1 hPa | 0 mm | - | - | - |
| 1777779574 | 33.89° C | 50% | 999 hPa | 0 mm | - | - | - |
* Rain latest hour (hover to see other rain measurements)
** Current wind speed in m/s (hover to see current wind gust speed)